Temperature
7 5 5 5 6 7 6 6 6 6 6 6 5 5 6 6 5 5 5 6 7 8 8 8 8 8 8 8 8 8 8 8 8 8 8 8 8 8 8 8 8 8 8 8
5 5 5 6 6 6 6 5 5 5 6 5 4 4 5 4 4 5 5 6 6 7 7 8 8 7 7 7 7 7 7 7 7 7 7 7 7 7 7 7 7 7 7 7
6 5 6 6 5 6 5 5 5 5 5 5 4 5 5 5 4 5 5 6 6 6 7 7 7 7 7 7 7 7 7 7 7 7 6 6 6 6 6 6 6 6 6 6
4 5 5 5 5 5 5 5 5 5 4 4 4 5 5 4 4 4 4 5 5 6 6 7 7 7 7 7 7 6 6 6 6 6 6 6 6 6 6 6 6 6 6 6
4 4 5 5 5 5 4 4 4 4 4 3 3 4 4 3 4 4 4 4 5 5 6 6 6 6 6 6 6 6 6 6 6 5 5 5 5 5 5 5 5 5 5 5
3 4 4 4 4 4 4 3 3 2 2 3 3 3 4 3 4 4 3 4 4 4 5 5 5 6 6 5 5 5 5 5 5 5 5 5 5 5 5 5 5 5 5 5
3 3 3 4 4 3 3 3 4 4 3 4 3 3 4 3 3 3 2 3 3 4 4 4 5 5 5 5 5 5 5 5 4 4 4 4 4 4 4 4 4 4 4 4
3 3 3 3 4 3 3 4 4 4 3 3 2 3 3 2 2 2 2 2 2 3 3 3 4 4 4 4 4 4 4 4 4 4 4 4 4 4 4 4 4 4 4 4
3 3 3 3 3 3 3 2 3 2 2 2 2 1 2 2 1 1 1 1 2 2 2 2 3 3 3 3 3 3 3 3 3 3 3 3 3 3 3 3 3 3 3 3
2 2 2 2 2 2 2 2 1 2 3 3 2 2 3 3 2 1 0 0 1 1 1 2 2 2 2 2 2 2 2 2 2 2 2 2 3 3 3 3 3 3 3 3
2 1 1 1 1 2 1 2 1 1 2 2 2 3 2 2 1 1 -0 0 1 1 1 1 1 1 1 1 2 2 2 2 2 1 1 2 2 2 2 2 2 2 2 2
0 -0 0 1 1 1 1 1 1 2 1 0 1 3 2 0 -0 -0 -0 0 0 1 1 1 1 1 1 1 1 1 1 1 1 1 1 1 1 1 1 1 1 1 2 2
0 0 1 1 1 0 0 0 -0 0 -0 -1 0 2 1 -1 -1 -0 -0 0 0 0 -0 -0 -0 -0 0 -0 -0 -0 0 0 0 0 0 0 0 0 0 0 1 1 1 1
1 -0 0 2 2 1 -0 -0 -1 -0 0 -0 0 1 1 0 0 -0 -0 -0 -0 -1 -1 -1 -1 -1 -1 -1 -1 -1 -1 -1 -0 -0 -1 -0 -0 -0 -0 -0 -0 -0 0 0
0 -0 -1 -1 -0 -0 -0 -0 -1 -1 -0 0 0 0 1 0 -1 -1 -1 -1 -1 -1 -1 -1 -1 -1 -2 -2 -1 -1 -1 -1 -1 -1 -1 -1 -1 -1 -1 -1 -1 -1 -1 -1
-1 -1 -2 -2 -1 -1 -1 -1 -1 -1 -1 -1 -1 -0 -0 -1 -1 -2 -2 -2 -2 -2 -2 -2 -2 -2 -2 -2 -2 -2 -2 -2 -2 -2 -2 -2 -2 -2 -2 -2 -2 -2 -1 -1
-2 -2 -2 -1 -2 -2 -2 -2 -1 -1 -2 -2 -1 -0 -2 -3 -3 -3 -2 -2 -2 -2 -2 -3 -3 -3 -3 -2 -2 -2 -2 -3 -3 -3 -3 -3 -3 -3 -3 -3 -2 -2 -2 -2
-3 -2 -2 -3 -3 -2 -1 -2 -2 -2 -2 -3 -2 -2 -3 -3 -3 -3 -2 -2 -2 -3 -3 -3 -3 -3 -3 -3 -3 -3 -3 -3 -3 -3 -4 -3 -4 -3 -3 -3 -3 -3 -3 -3
-3 -2 -3 -3 -3 -3 -2 -2 -3 -3 -3 -4 -4 -4 -4 -4 -4 -3 -2 -2 -3 -3 -3 -4 -4 -4 -4 -4 -4 -4 -4 -4 -4 -4 -4 -4 -4 -4 -4 -4 -4 -4 -4 -4
-4 -3 -3 -3 -3 -2 -1 -3 -3 -3 -3 -4 -5 -5 -5 -5 -4 -4 -3 -3 -3 -4 -4 -4 -4 -4 -4 -4 -5 -5 -5 -5 -5 -5 -5 -5 -5 -5 -5 -5 -5 -5 -5 -4
-4 -4 -4 -4 -3 -3 -4 -4 -4 -2 -2 -3 -4 -4 -5 -6 -4 -4 -4 -4 -4 -4 -4 -4 -5 -5 -5 -5 -5 -5 -5 -5 -5 -6 -6 -6 -6 -6 -6 -6 -5 -5 -5 -5
-4 -4 -5 -4 -4 -3 -4 -5 -4 -3 -3 -4 -4 -4 -5 -5 -5 -5 -5 -5 -5 -5 -5 -5 -5 -5 -6 -6 -6 -6 -6 -6 -6 -6 -6 -6 -6 -7 -7 -7 -6 -6 -6 -6
-5 -5 -5 -4 -3 -4 -4 -4 -4 -4 -4 -4 -4 -4 -5 -5 -5 -5 -5 -5 -5 -5 -5 -6 -6 -6 -6 -6 -7 -7 -7 -7 -7 -7 -7 -7 -7 -7 -7 -7 -7 -7 -7 -7
-7 -7 -6 -6 -6 -6 -5 -5 -4 -4 -5 -5 -5 -5 -5 -5 -5 -5 -6 -6 -6 -6 -6 -6 -6 -7 -7 -7 -7 -7 -7 -8 -8 -8 -8 -8 -8 -8 -8 -8 -8 -8 -8 -8
-7 -8 -7 -7 -7 -7 -6 -5 -5 -5 -5 -5 -5 -5 -6 -6 -6 -6 -6 -6 -6 -6 -7 -7 -7 -7 -7 -7 -8 -8 -8 -8 -8 -8 -8 -9 -9 -9 -9 -9 -9 -9 -9 -9
-8 -8 -7 -5 -6 -7 -6 -5 -6 -6 -6 -6 -6 -6 -6 -6 -6 -7 -7 -7 -7 -7 -7 -7 -7 -8 -8 -8 -8 -9 -9 -9 -9 -9 -9 -9 -10 -10 -10 -10 -10 -10 -10 -10
Wind_Speed
1 2 4 7 8 4 3 4 6 6 3 3 8 11 12 7 5 6 6 6 7 7 5 2 2 2 1 1 2 2 3 3 3 2 2 3 3 2 1 1 2 2 3 4
2 5 6 4 4 4 4 5 6 5 3 3 6 11 9 7 6 7 7 7 7 5 3 2 1 2 3 3 2 2 2 2 2 2 2 2 2 2 2 1 2 3 3 4
7 4 3 3 3 4 6 7 6 5 5 3 5 8 6 5 4 5 5 5 4 5 5 4 3 3 3 3 4 3 3 3 2 1 1 1 1 1 1 2 2 2 3 4
4 4 3 4 5 6 8 5 5 4 2 4 1 6 7 5 5 5 5 4 4 4 4 3 3 3 3 4 3 3 3 3 2 2 2 3 3 2 3 2 2 2 3 4
3 2 3 6 6 6 5 1 2 3 3 4 2 5 8 2 6 7 4 4 4 3 3 2 2 3 2 2 2 2 2 2 2 2 3 4 2 2 1 1 2 2 2 2
4 2 2 3 2 3 2 2 2 2 2 5 7 6 8 5 7 5 4 3 3 3 2 2 2 2 2 1 1 1 2 1 1 2 2 3 3 2 2 2 2 2 2 2
4 3 2 1 1 0 2 3 1 2 2 7 4 6 9 6 5 4 4 3 3 2 2 2 2 2 2 2 1 0 1 1 0 1 2 2 2 3 3 3 3 3 2 2
3 6 3 2 4 4 5 5 5 5 5 5 2 8 7 4 2 1 2 2 2 2 2 2 2 1 1 1 1 0 1 1 0 1 1 1 1 1 1 2 2 3 3 4
3 5 1 1 1 4 4 5 3 3 1 4 6 6 7 3 2 1 1 2 2 2 2 2 2 2 2 2 1 1 1 0 0 1 1 1 1 1 2 2 2 2 3 3
3 5 4 2 1 1 3 6 4 4 3 5 6 5 5 5 4 3 2 2 2 2 2 2 2 2 2 2 1 1 1 1 1 1 1 1 1 2 1 1 2 3 3 3
3 3 4 1 5 6 4 4 4 3 4 4 5 6 4 5 4 4 4 3 2 2 2 2 2 2 2 2 2 2 1 2 1 1 1 1 1 1 1 1 2 3 2 3
3 2 4 6 4 2 4 6 7 5 5 4 4 7 2 3 3 2 3 2 2 2 2 2 1 2 2 2 2 2 2 2 2 2 1 1 1 1 1 1 2 2 3 3
3 2 3 4 2 0 3 4 5 3 2 5 6 8 2 1 2 2 3 3 2 2 2 1 1 1 1 2 2 2 2 2 2 2 2 1 1 1 2 2 2 2 3 3
2 4 6 7 5 2 5 5 5 5 5 7 10 11 9 6 6 5 3 2 2 2 2 1 1 1 1 1 1 2 2 2 2 2 2 2 2 2 2 2 2 2 2 3
2 4 6 8 8 6 9 10 9 11 10 10 11 12 13 9 7 6 4 3 3 3 2 2 2 2 2 2 2 2 2 2 2 2 2 3 3 3 3 2 2 2 2 3
2 3 3 6 6 7 10 12 12 13 11 12 13 14 11 7 4 5 5 4 4 4 3 3 2 2 2 2 2 3 3 3 2 2 2 3 3 3 3 3 2 2 2 2
3 3 2 5 4 4 8 10 10 8 8 8 12 12 5 4 5 5 5 5 5 4 3 3 3 3 3 3 2 3 3 3 2 2 2 3 3 3 3 3 3 2 2 2
5 4 3 3 2 7 8 3 6 7 8 9 8 7 6 6 5 5 5 5 5 4 4 3 3 3 2 2 2 2 2 1 2 2 2 3 3 3 3 3 3 3 3 2
7 6 4 3 4 9 8 4 4 6 7 6 8 7 5 3 3 4 3 3 4 4 4 3 3 2 2 1 1 1 1 1 1 2 3 3 3 3 3 3 3 3 3 3
2 4 4 4 4 7 7 3 2 2 5 4 4 5 4 0 2 4 2 2 3 2 2 2 1 1 1 1 1 1 1 1 2 3 3 3 3 3 3 3 3 3 2 3
3 3 6 7 7 8 6 2 4 4 6 2 3 4 3 4 5 4 3 3 2 2 2 1 1 1 1 1 1 1 1 2 3 3 2 2 3 3 2 2 2 2 2 2
7 6 6 5 6 9 3 5 6 6 1 1 2 3 3 4 5 4 3 3 3 2 2 1 1 1 1 1 1 1 2 2 2 2 2 2 2 2 2 2 2 2 2 2
7 8 6 8 8 3 4 5 3 1 2 3 3 4 3 4 4 4 3 3 3 2 2 1 1 1 1 0 1 1 2 1 2 2 2 2 3 2 2 1 2 2 2 2
4 2 4 5 8 6 5 4 3 3 4 4 4 4 3 4 4 4 3 3 2 2 1 1 1 1 1 1 1 1 1 1 1 1 2 2 2 2 2 2 1 1 2 2
5 5 4 7 7 5 5 4 5 4 3 3 3 3 3 3 4 3 3 3 2 2 1 1 1 1 2 1 1 1 1 0 1 1 2 2 2 2 2 2 2 2 2 2
5 6 7 8 6 5 5 3 3 3 4 4 4 4 3 3 4 3 3 3 2 2 1 1 1 1 1 1 1 1 1 0 0 1 2 2 2 2 2 2 3 4 4 5
Wind_Direction
44 104 210 214 206 208 189 216 250 259 269 257 250 261 270 269 244 253 258 256 255 254 258 249 221 199 174 162 164 161 158 159 150 163 175 182 189 186 171 161 174 171 164 160
50 240 235 209 201 219 226 246 262 284 294 252 274 272 268 257 244 240 245 250 253 264 287 277 218 186 193 195 190 173 162 161 169 182 188 190 188 191 193 185 193 191 180 172
206 237 224 195 202 215 233 225 241 264 323 310 312 293 258 257 245 253 251 248 254 245 252 260 242 217 206 208 207 199 189 187 188 167 123 94 96 123 197 204 203 204 191 182
239 258 231 219 223 200 244 231 230 251 285 287 323 287 267 250 272 264 264 267 266 263 251 252 246 231 223 222 209 196 192 194 191 171 176 177 194 207 216 208 198 187 188 185
252 249 231 234 235 201 224 198 201 222 214 273 248 244 277 258 254 257 261 270 275 276 257 256 253 240 236 224 199 196 190 194 193 189 196 197 191 193 185 178 182 186 191 188
256 261 235 231 240 195 166 73 63 77 118 255 224 210 270 230 229 249 248 275 305 319 325 330 354 26 20 27 137 161 176 201 206 203 205 190 184 181 165 186 201 204 207 210
300 271 249 209 190 134 122 109 353 317 263 250 191 212 251 248 238 228 246 283 318 336 358 4 12 16 19 19 15 150 176 230 258 223 221 208 202 195 191 204 207 218 221 227
280 278 236 213 201 195 197 172 182 221 238 274 228 233 252 261 273 247 259 289 334 353 8 15 360 355 352 349 358 282 210 253 264 242 255 238 216 215 217 224 222 216 230 234
228 260 299 209 225 170 173 201 182 168 239 267 257 274 295 268 289 299 309 340 333 345 358 3 5 6 359 350 332 303 244 274 280 269 300 295 264 239 232 239 236 229 228 244
186 263 286 297 100 218 186 159 141 177 218 255 275 264 252 256 257 277 289 293 296 329 347 357 359 356 352 347 345 7 14 283 308 304 278 281 271 262 248 228 237 244 240 227
177 223 290 298 205 203 163 167 175 187 198 207 262 265 231 227 230 237 258 272 265 282 296 315 330 342 358 10 17 14 16 6 351 327 302 294 288 279 248 233 241 245 251 232
188 175 257 249 239 211 200 197 174 193 233 212 239 267 279 223 245 231 263 282 288 288 296 305 327 1 13 13 7 6 2 349 327 313 310 293 295 300 271 263 264 262 256 255
163 160 309 323 319 200 221 213 198 188 186 204 222 262 297 351 312 267 261 278 292 300 313 337 344 348 346 351 350 349 346 338 338 340 340 335 322 304 288 279 278 268 257 259
185 192 208 232 251 231 237 228 201 194 221 236 235 255 275 286 286 287 277 261 271 285 296 299 303 308 312 326 332 334 334 338 344 351 346 341 328 309 292 287 282 275 261 258
168 232 236 253 266 259 252 247 222 219 226 234 251 251 264 268 266 269 270 270 273 283 291 286 282 290 308 326 332 329 326 337 344 350 342 328 329 330 329 317 305 295 282 273
189 233 249 270 261 261 268 256 237 236 236 241 259 268 267 273 269 270 268 262 262 270 277 280 282 286 290 299 310 322 321 327 336 335 325 329 338 340 335 325 317 309 297 294
191 193 237 265 285 308 269 244 224 219 218 214 237 250 259 270 267 260 260 257 258 266 273 270 266 266 273 277 288 294 306 320 327 327 328 330 333 332 326 324 331 319 299 299
190 187 212 262 350 248 246 220 204 219 243 227 235 247 246 250 268 264 245 235 253 267 268 265 266 275 280 285 295 301 307 315 324 328 325 329 333 326 328 330 326 320 309 293
203 192 197 200 242 271 286 254 192 208 263 241 234 255 269 289 313 290 253 226 243 251 253 252 249 257 269 273 285 302 305 318 323 316 316 319 315 315 323 321 317 315 314 317
166 180 192 195 222 246 255 245 179 132 279 261 209 241 257 192 288 276 287 286 274 271 263 262 259 265 244 255 199 194 256 280 291 299 303 307 307 303 306 305 306 309 308 308
165 192 209 218 235 260 259 224 131 175 252 261 206 225 219 219 238 274 310 311 292 281 276 253 213 214 237 221 177 202 237 265 292 308 316 319 317 311 305 310 310 310 315 318
187 190 202 195 221 252 212 144 185 221 261 253 258 244 234 246 269 280 284 285 287 289 294 256 221 271 279 197 178 222 264 294 315 324 328 326 326 327 331 324 322 326 329 323
206 199 196 203 223 249 175 197 226 231 246 261 260 261 247 261 271 274 277 283 285 277 280 269 216 262 306 246 186 228 284 319 332 342 338 332 336 337 331 316 319 330 334 322
241 206 206 246 258 257 253 257 280 271 256 271 263 264 253 254 267 275 285 293 298 296 285 278 198 254 292 308 313 248 287 322 333 332 331 337 342 337 335 330 327 319 314 307
220 185 220 252 270 290 270 251 261 276 275 281 286 271 253 251 270 271 280 289 287 292 290 240 224 252 276 300 314 309 302 346 346 331 330 336 337 331 329 329 316 312 299 299
202 197 208 241 235 224 251 251 254 262 271 268 274 288 282 245 254 265 272 277 278 281 283 275 261 258 269 276 293 301 296 254 310 332 334 329 329 330 332 336 335 326 324 327
Height
1497 1501 1502 1501 1501 1502 1503 1506 1506 1503 1500 1501 1499 1495 1490 1488 1488 1487 1486 1486 1486 1486 1488 1489 1491 1492 1494 1496 1497 1499 1500 1502 1504 1505 1507 1508 1510 1512 1513 1515 1516 1517 1518 1519
1500 1501 1498 1499 1500 1502 1503 1505 1505 1502 1500 1500 1499 1494 1488 1485 1485 1483 1483 1482 1482 1483 1484 1485 1486 1488 1490 1491 1493 1495 1497 1498 1500 1502 1503 1505 1506 1508 1509 1511 1512 1513 1515 1516
1498 1498 1496 1498 1499 1501 1502 1504 1503 1503 1501 1499 1499 1491 1486 1481 1481 1480 1479 1479 1479 1479 1480 1481 1482 1483 1485 1487 1489 1491 1493 1494 1496 1498 1500 1501 1502 1504 1505 1506 1507 1509 1511 1512
1498 1496 1496 1497 1498 1499 1500 1499 1500 1502 1504 1505 1503 1498 1483 1481 1479 1477 1476 1475 1475 1476 1476 1477 1478 1480 1481 1483 1486 1487 1489 1491 1492 1494 1495 1497 1497 1498 1500 1501 1503 1505 1507 1508
1496 1495 1495 1495 1496 1496 1498 1498 1500 1502 1504 1507 1504 1503 1485 1481 1478 1474 1473 1473 1473 1472 1473 1474 1475 1476 1478 1480 1482 1483 1485 1487 1489 1490 1492 1493 1494 1495 1497 1498 1499 1500 1502 1504
1496 1495 1494 1493 1494 1495 1497 1499 1502 1506 1507 1504 1499 1502 1486 1481 1473 1471 1471 1471 1471 1471 1471 1472 1473 1474 1475 1476 1478 1479 1481 1483 1484 1486 1487 1489 1490 1491 1492 1493 1494 1496 1497 1499
1496 1494 1493 1493 1494 1496 1497 1501 1504 1503 1506 1498 1496 1496 1482 1472 1470 1469 1470 1470 1470 1469 1469 1469 1470 1471 1472 1473 1475 1476 1477 1479 1480 1482 1484 1485 1486 1488 1488 1490 1491 1492 1493 1494
1499 1495 1492 1491 1492 1494 1496 1497 1501 1503 1504 1498 1496 1491 1477 1470 1469 1468 1469 1469 1469 1469 1468 1468 1469 1469 1470 1471 1472 1473 1474 1475 1477 1478 1480 1481 1483 1484 1485 1486 1487 1488 1489 1490
1498 1494 1491 1490 1490 1492 1494 1497 1497 1504 1506 1505 1494 1487 1477 1469 1468 1468 1468 1468 1468 1468 1467 1467 1468 1468 1468 1469 1469 1470 1471 1472 1473 1475 1476 1477 1479 1480 1481 1482 1483 1484 1485 1486
1496 1497 1493 1491 1490 1491 1492 1494 1500 1500 1500 1497 1490 1486 1476 1468 1467 1467 1467 1466 1466 1467 1466 1466 1467 1467 1466 1467 1468 1468 1469 1469 1470 1471 1472 1473 1475 1476 1477 1478 1479 1479 1480 1481
1495 1498 1495 1493 1491 1490 1493 1495 1495 1497 1497 1496 1493 1479 1469 1467 1465 1466 1466 1465 1465 1465 1465 1465 1465 1465 1465 1465 1465 1465 1465 1466 1467 1467 1468 1470 1471 1472 1472 1473 1474 1474 1475 1476
1495 1498 1498 1493 1489 1488 1489 1490 1493 1494 1494 1498 1492 1478 1465 1465 1464 1464 1465 1465 1465 1465 1464 1464 1464 1463 1463 1462 1462 1462 1462 1463 1463 1464 1465 1466 1466 1467 1467 1468 1469 1469 1470 1471
1494 1497 1497 1490 1491 1491 1490 1490 1491 1492 1494 1497 1493 1477 1465 1464 1463 1463 1463 1463 1463 1463 1463 1462 1462 1461 1461 1460 1460 1460 1460 1460 1461 1461 1461 1462 1462 1462 1463 1463 1464 1464 1465 1466
1491 1494 1494 1489 1483 1486 1488 1487 1489 1491 1490 1489 1482 1471 1465 1464 1463 1462 1462 1461 1461 1461 1460 1460 1459 1459 1459 1458 1458 1457 1457 1457 1458 1458 1458 1458 1458 1458 1458 1459 1459 1460 1460 1460
1489 1491 1491 1487 1485 1485 1482 1481 1483 1484 1480 1479 1471 1469 1462 1461 1461 1460 1460 1459 1459 1458 1458 1458 1457 1457 1456 1456 1455 1455 1455 1455 1455 1454 1454 1454 1454 1454 1454 1454 1455 1455 1455 1455
1489 1490 1490 1487 1483 1482 1479 1475 1475 1475 1474 1473 1469 1465 1459 1458 1458 1457 1457 1456 1455 1455 1455 1455 1455 1454 1453 1453 1452 1452 1452 1452 1451 1451 1451 1451 1451 1450 1450 1450 1450 1451 1451 1451
1488 1490 1489 1485 1483 1481 1477 1470 1468 1467 1466 1466 1463 1458 1456 1456 1455 1454 1454 1453 1452 1452 1452 1452 1451 1451 1451 1450 1450 1449 1449 1449 1448 1448 1447 1447 1447 1446 1446 1446 1446 1446 1446 1446
1485 1487 1488 1488 1487 1482 1465 1461 1460 1461 1460 1459 1456 1453 1453 1453 1452 1451 1450 1450 1449 1449 1449 1448 1448 1448 1448 1447 1447 1447 1446 1446 1445 1445 1444 1444 1443 1443 1442 1442 1442 1442 1442 1442
1479 1482 1485 1487 1486 1475 1464 1459 1460 1461 1458 1454 1454 1452 1452 1451 1450 1448 1447 1447 1447 1446 1446 1446 1445 1445 1444 1444 1444 1443 1443 1442 1442 1441 1441 1440 1440 1439 1438 1438 1438 1438 1437 1437
1478 1478 1482 1484 1481 1473 1459 1457 1455 1458 1458 1451 1450 1451 1450 1450 1451 1447 1445 1445 1444 1443 1443 1442 1442 1442 1441 1441 1440 1440 1439 1439 1438 1438 1438 1438 1437 1436 1435 1435 1434 1434 1434 1433
1479 1480 1480 1479 1477 1466 1457 1455 1456 1460 1453 1449 1448 1448 1448 1448 1447 1445 1443 1442 1442 1441 1440 1439 1439 1438 1438 1437 1437 1436 1436 1436 1436 1435 1435 1435 1434 1433 1432 1432 1431 1431 1430 1429
1473 1475 1477 1476 1473 1464 1453 1454 1455 1451 1447 1447 1446 1446 1445 1444 1443 1442 1441 1440 1439 1438 1437 1436 1436 1435 1435 1434 1434 1433 1433 1433 1433 1432 1432 1431 1431 1430 1429 1428 1428 1427 1426 1426
1467 1465 1464 1463 1457 1450 1448 1448 1447 1446 1446 1444 1444 1444 1443 1441 1440 1439 1438 1437 1436 1435 1434 1433 1433 1432 1432 1432 1431 1430 1430 1430 1429 1429 1429 1428 1427 1427 1426 1425 1424 1424 1423 1423
1461 1460 1460 1458 1449 1446 1446 1445 1444 1444 1443 1442 1442 1441 1440 1438 1437 1436 1435 1434 1433 1432 1431 1431 1430 1429 1429 1429 1428 1428 1428 1427 1426 1426 1425 1425 1424 1424 1423 1423 1422 1421 1421 1420
1455 1457 1456 1452 1446 1444 1441 1441 1441 1440 1439 1439 1439 1438 1437 1436 1434 1434 1433 1431 1431 1430 1429 1428 1427 1427 1426 1426 1426 1425 1425 1424 1424 1423 1423 1422 1422 1421 1420 1420 1420 1419 1418 1418
1449 1450 1450 1443 1440 1441 1439 1438 1438 1437 1436 1436 1435 1434 1434 1433 1432 1431 1430 1429 1428 1427 1426 1425 1425 1424 1424 1423 1423 1423 1422 1422 1421 1420 1420 1419 1419 1418 1418 1417 1416 1416 1416 1415